Weather History for Thermal, CA

Change the Weather History Date:

Saturday, March 10, 2012

  Actual Average Record
Temperature  
Mean Temperature 57 °F 63 °F  
Max Temperature 79 °F 80 °F 98 °F (1997)
Min Temperature 34 °F 46 °F 34 °F (1962)
Degree Days  
Heating Degree Days 8 4  
Month to date heating degree days 54 43  
Since 1 July heating degree days 1172 1108  
Cooling Degree Days 0 2  
Month to date cooling degree days 0 11  
Year to date cooling degree days 3 23  
Growing Degree Days 8 (Base 50)    
Moisture  
Dew Point 26 °F    
Average Humidity 34    
Maximum Humidity 55    
Minimum Humidity 12    
Precipitation  
Precipitation 0.00 in 0.02 in 0.35 in (1980)
Month to date precipitation 0.00 0.19  
Year to date precipitation 0.27 1.52  
Since 1 July precipitation 1.26 2.90  
Snow  
Snow 0.00 in - - ()
Month to date snowfall 0.0  
Year to date snowfall 0.0  
Since 1 July snowfall 0.0  
Snow Depth 0.00 in    
Sea Level Pressure  
Sea Level Pressure 29.95 in    
Wind  
Wind Speed 4 mph (ESE)    
Max Wind Speed 13 mph    
Max Gust Speed 17 mph    
Visibility 10 miles    
Events      
T = Trace of Precipitation, MM = Missing Value Source: NWS Daily Summary

Daily Weather History Graph

Daily Weather History Graph

Search for Another Location

Airport:

Trip Planner

Search our weather history database for the weather conditions in past years. The results will help you decide how hot, cold, wet, or windy it might be!

Date:

Astronomy

Mar. 10, 2012 Rise Set
Actual Time 6:00 AM PST 5:49 PM PST
Civil Twilight 5:36 AM PST 6:13 PM PST
Nautical Twilight 5:07 AM PST 6:42 PM PST
Astronomical Twilight 4:38 AM PST 7:11 PM PST
Moon 8:53 PM PST (3/10) 7:10 AM PST (3/10)
Length of Visible Light 12h 37m
Length of Day
11h 48m
Waning Gibbous, 92% of the Moon is Illuminated
Mar 10
Waning Gibbous
Mar 14
Last Quarter
Mar 22
New
Mar 30
First Quarter
Apr 6
Full

Hourly Weather History & Observations

Time (PST) Temp. Windchill Dew Point Humidity Pressure Visibility Wind Dir Wind Speed Gust Speed Precip Events Conditions
12:52 AM 45.0 °F - 21.0 °F 39% 29.97 in 10.0 mi Calm Calm - N/A   Clear
1:52 AM 45.0 °F - 19.0 °F 36% 29.96 in 10.0 mi Calm Calm - N/A   Clear
2:52 AM 46.9 °F - 24.1 °F 41% 29.95 in 10.0 mi Calm Calm - N/A   Clear
3:52 AM 43.0 °F 41.3 °F 19.9 °F 40% 29.95 in 10.0 mi NW 3.5 mph - N/A   Clear
4:52 AM 41.0 °F - 27.0 °F 57% 29.95 in 10.0 mi Calm Calm - N/A   Clear
5:52 AM 37.0 °F 33.3 °F 21.9 °F 54% 29.98 in 10.0 mi SSE 4.6 mph - N/A   Clear
6:52 AM 44.1 °F - 26.1 °F 49% 30.01 in 10.0 mi Calm Calm - N/A   Clear
7:52 AM 57.0 °F - 30.9 °F 37% 30.03 in 10.0 mi Calm Calm - N/A   Clear
8:52 AM 66.0 °F - 34.0 °F 30% 30.04 in 10.0 mi ESE 6.9 mph - N/A   Clear
9:52 AM 71.1 °F - 27.0 °F 19% 30.04 in 10.0 mi SE 5.8 mph - N/A   Clear
10:52 AM 75.0 °F - 23.0 °F 14% 30.02 in 10.0 mi SSE 5.8 mph 16.1 mph N/A   Clear
11:52 AM 75.0 °F - 23.0 °F 14% 30.00 in 10.0 mi SE 9.2 mph - N/A   Clear
12:52 PM 75.9 °F - 24.1 °F 15% 29.97 in 10.0 mi ESE 8.1 mph - N/A   Clear
2:52 PM 78.1 °F - 21.0 °F 12% 29.91 in 10.0 mi SE 9.2 mph - N/A   Clear
3:52 PM 77.0 °F - 19.9 °F 12% 29.89 in 10.0 mi SE 8.1 mph - N/A   Clear
4:52 PM 75.9 °F - 23.0 °F 14% 29.88 in 10.0 mi SSE 5.8 mph - N/A   Clear
5:52 PM 69.1 °F - 28.0 °F 22% 29.88 in 10.0 mi SSE 3.5 mph - N/A   Clear
6:52 PM 61.0 °F - 30.0 °F 31% 29.90 in 10.0 mi Calm Calm - N/A   Clear
7:52 PM 57.0 °F - 30.9 °F 37% 29.91 in 10.0 mi North 3.5 mph - N/A   Clear
8:52 PM 55.0 °F - 32.0 °F 42% 29.92 in 10.0 mi Calm Calm - N/A   Clear
9:52 PM 52.0 °F - 32.0 °F 47% 29.92 in 10.0 mi North 3.5 mph - N/A   Clear
10:52 PM 51.1 °F - 27.0 °F 39% 29.92 in 10.0 mi NE 5.8 mph - N/A   Clear
11:52 PM 55.9 °F - 30.9 °F 39% 29.91 in 10.0 mi SSE 5.8 mph - N/A   Clear